Location: Isles
(48.9125°N, 2.8272°E)
Time: 15:40:46
(UTC+00:00)

Cosmos 2219 Rocket - Pass Details

Date: 03 February 2023
Orbit: 826 x 848 km, 71.0° (Epoch: 30 March)

Event Time Altitude Azimuth Distance (km) Brightness Sun altitude
Rises 19:46:40 0° 214° (SW) 3,353 5.6 -29.3°
Reaches altitude 10° 19:49:06 10° 217° (SW) 2,425 4.9 -29.7°
Enters shadow 19:54:10 66° 267° (W) 907 2.4 -30.5°
